[[{"header":{"parameterUnit":"m.s-1","parameterCategory":2,"la1":30.2992,"la2":30.254,"lo1":-89.0895,"lo2":-89.0443,"dy":0.0025,"dx":0.0025,"nx":19,"ny":19,"refTime":"2026-05-20T21:00:00:Z","depth":"0","parameterNumber":2,"parameterNumberName":"U-component_of_CURRENTS"},"data":[0,0,0,-0.112,-0.1122,-0.1153,-0.1153,-0.1096,-0.1095,0,0,0,0,0,0,0,0,0,0,0,-0.1098,-0.1098,-0.112,-0.1122,-0.1153,-0.1153,-0.1096,-0.1095,0,0,0,0,0,0,0,0,0,0,0,-0.1098,-0.1098,-0.1099,-0.1122,-0.1153,-0.1153,-0.1096,-0.1093,0,0,0,0,0,0,0,0,0,0,-0.1073,-0.1068,-0.1098,-0.1099,-0.1122,-0.1153,-0.1153,-0.1094,-0.1093,-0.1058,0,-0.1067,0,-0.1089,-0.109,-0.109,0,0,0,-0.1108,-0.1069,-0.1085,-0.1099,-0.1123,-0.1153,-0.1135,-0.1094,-0.1094,-0.1056,-0.1067,-0.1066,-0.1088,-0.109,-0.109,-0.1112,-0.1113,0,0,-0.1106,-0.1093,-0.1086,-0.1085,-0.1134,-0.1134,-0.1136,-0.1095,-0.1088,-0.1067,-0.1065,-0.1087,-0.109,-0.1089,-0.1111,-0.1112,0,0,0,-0.111,-0.1091,-0.111,-0.1086,-0.1105,-0.1136,-0.1138,-0.109,-0.1099,-0.1065,-0.1086,-0.1089,-0.1088,-0.111,-0.1111,-0.1165,0,0,0,-0.1109,-0.1095,-0.1109,-0.11,-0.1107,-0.1111,-0.1133,-0.1101,-0.1098,-0.1086,-0.1089,-0.1088,-0.1109,-0.1111,-0.1161,-0.1171,0,0,0,-0.1096,-0.1094,-0.1101,-0.1099,-0.1122,-0.1113,-0.1119,-0.1101,-0.1111,-0.109,-0.1087,-0.1109,-0.1111,-0.1158,-0.1166,-0.128,0,0,0,-0.1076,-0.1088,-0.11,-0.1122,-0.1122,-0.1164,-0.112,-0.1133,-0.1121,-0.1089,-0.1109,-0.1111,-0.1157,-0.1163,-0.1276,-0.1201,-0.1214,0,0,-0.1082,-0.1088,-0.1104,-0.1117,-0.1157,-0.1159,-0.1203,-0.1163,-0.1137,-0.1111,-0.1112,-0.1162,-0.1166,-0.1279,-0.1309,-0.1318,0,0,0,-0.1101,-0.1105,-0.1123,-0.1147,-0.1183,-0.1213,-0.1203,-0.1217,-0.1214,-0.1143,-0.1186,-0.1186,-0.1256,-0.1203,-0.1212,-0.1065,-0.112,-0.112,-0.112,-0.107,-0.1102,-0.1122,-0.1162,-0.1194,-0.1247,-0.1288,-0.1302,-0.1258,-0.1286,-0.1247,-0.1389,-0.1332,-0.1338,-0.1188,-0.1275,-0.1275,-0.1276,-0.1276,-0.1059,-0.1061,-0.1109,-0.1135,-0.119,-0.1226,-0.1325,-0.134,-0.1422,-0.1345,-0.1413,-0.1282,-0.135,-0.1186,-0.128,-0.1279,-0.1278,-0.1278,-0.1278,-0.1013,-0.1017,-0.1039,-0.1072,-0.1122,-0.1193,-0.1262,-0.1345,-0.1451,-0.1511,-0.1479,-0.1477,-0.1321,-0.1548,-0.1548,-0.1549,-0.1549,-0.155,-0.155,-0.0944,-0.0972,-0.0953,-0.1002,-0.1014,-0.1064,-0.1216,-0.1319,-0.1477,-0.1534,-0.1534,-0.1344,-0.1473,-0.1449,-0.1559,-0.1557,-0.1556,-0.1555,-0.1555,-0.0878,-0.087,-0.0845,-0.0842,-0.0877,-0.085,-0.1036,-0.1248,-0.144,-0.1534,-0.1407,-0.1579,-0.1565,-0.1555,-0.1534,-0.166,-0.166,-0.166,-0.166,-0.0804,-0.0808,-0.0738,-0.0712,-0.0713,-0.0748,-0.0741,-0.0956,-0.1239,-0.1292,-0.1369,-0.1243,-0.1246,-0.1206,-0.1204,-0.1173,-0.1205,-0.1204,-0.1204,-0.0743,-0.0728,-0.0654,-0.0633,-0.0626,-0.0597,-0.0482,-0.0534,-0.0941,-0.1173,-0.1187,-0.1206,-0.1007,-0.1022,-0.0942,-0.0953,-0.0895,0,0]},{"header":{"parameterUnit":"m.s-1","parameterCategory":2,"la1":30.2992,"la2":30.254,"lo1":-89.0895,"lo2":-89.0443,"dy":0.0025,"dx":0.0025,"nx":19,"ny":19,"refTime":"2026-05-20T21:00:00:Z","depth":"0","parameterNumber":3,"parameterNumberName":"V-component_of_CURRENTS"},"data":[0,0,0,-0.0258,-0.0256,-0.0122,-0.0121,0.0039,0.004,0,0,0,0,0,0,0,0,0,0,0,-0.0307,-0.0306,-0.0258,-0.0256,-0.0122,-0.0121,0.0039,0.004,0,0,0,0,0,0,0,0,0,0,0,-0.0307,-0.0306,-0.0306,-0.0255,-0.0122,-0.0121,0.0039,-0.0055,0,0,0,0,0,0,0,0,0,0,-0.0181,-0.0229,-0.0306,-0.0306,-0.0255,-0.0122,-0.0121,-0.0059,-0.0049,-0.0031,0,-0.0023,0,0.0004,0.0049,0.0049,0,0,0,-0.0235,-0.0238,-0.0208,-0.0306,-0.0254,-0.0123,-0.0177,-0.0053,-0.0042,-0.0018,-0.0021,-0.0014,0.0007,0.005,0.005,0.007,0.0069,0,0,-0.0243,-0.0271,-0.0216,-0.0201,-0.0236,-0.0181,-0.0173,-0.0046,-0.0039,-0.002,-0.001,0.001,0.0051,0.0052,0.0071,0.007,0,0,0,-0.0278,-0.0276,-0.0248,-0.0208,-0.0187,-0.0178,-0.0168,-0.0044,-0.0037,-0.0008,0.0012,0.0051,0.0053,0.0071,0.007,-0.0061,0,0,0,-0.0281,-0.0298,-0.0252,-0.0265,-0.019,-0.0112,-0.0169,-0.0045,-0.003,0.0011,0.0052,0.0054,0.0072,0.0071,-0.0056,-0.0134,0,0,0,-0.031,-0.03,-0.0292,-0.0268,-0.0219,-0.0113,-0.0097,-0.0041,-0.0019,0.005,0.0055,0.0073,0.0071,-0.0051,-0.0125,-0.0204,0,0,0,-0.0332,-0.0337,-0.0293,-0.0292,-0.0221,-0.0187,-0.0097,-0.0048,0.0001,0.0052,0.0072,0.007,-0.0049,-0.0119,-0.0199,-0.0122,-0.0142,0,0,-0.0355,-0.034,-0.0342,-0.03,-0.03,-0.0203,-0.0209,-0.01,-0.0021,0.0036,0.0037,-0.0057,-0.0124,-0.0203,-0.0225,-0.0243,0,0,0,-0.0361,-0.0369,-0.0359,-0.0346,-0.0303,-0.0292,-0.0185,-0.0158,-0.0104,-0.0003,-0.0057,-0.0095,-0.0141,-0.0082,-0.0096,0.0279,0.0062,0.0062,0.0062,-0.0415,-0.0404,-0.0424,-0.0411,-0.0398,-0.0347,-0.0343,-0.0288,-0.0183,-0.0195,-0.0201,-0.0353,-0.0291,-0.0301,0.0085,-0.0188,-0.0189,-0.0189,-0.0189,-0.0471,-0.0484,-0.0491,-0.051,-0.0505,-0.0507,-0.0484,-0.0438,-0.0449,-0.0338,-0.0375,-0.0222,-0.0324,0.0093,-0.0198,-0.0196,-0.0195,-0.0194,-0.0194,-0.0506,-0.0515,-0.0534,-0.0578,-0.0624,-0.0606,-0.0692,-0.0643,-0.0578,-0.0619,-0.0512,-0.0507,-0.0141,-0.0616,-0.0617,-0.0618,-0.0618,-0.0619,-0.0619,-0.0526,-0.055,-0.0595,-0.0648,-0.0689,-0.0758,-0.0808,-0.0851,-0.0786,-0.0668,-0.0666,-0.0138,-0.0483,-0.0467,-0.063,-0.0628,-0.0627,-0.0626,-0.0625,-0.0554,-0.0563,-0.0633,-0.0684,-0.0809,-0.0932,-0.0993,-0.1045,-0.1038,-0.1011,-0.0247,-0.0683,-0.0635,-0.062,-0.0606,-0.0797,-0.0797,-0.0797,-0.0797,-0.0559,-0.0575,-0.0664,-0.0761,-0.0898,-0.1012,-0.1205,-0.1154,-0.0654,-0.0213,-0.0106,0.0084,0.0074,0.0176,0.0174,0.021,0.023,0.0232,0.0234,-0.0572,-0.06,-0.0665,-0.077,-0.0931,-0.1112,-0.1274,-0.1095,-0.0121,0.0314,0.0398,0.0354,0.0675,0.0629,0.0826,0.0793,0.0864,0,0]}],[{"header":{"parameterUnit":"m.s-1","parameterCategory":2,"la1":30.2992,"la2":30.254,"lo1":-89.0895,"lo2":-89.0443,"dy":0.0025,"dx":0.0025,"nx":19,"ny":19,"refTime":"2026-05-20T21:00:00:Z","depth":"2","parameterNumber":2,"parameterNumberName":"U-component_of_CURRENTS"},"data":[0,0,0,-0.166,-0.1662,-0.1719,-0.1719,-0.1671,-0.167,0,0,0,0,0,0,0,0,0,0,0,-0.1616,-0.1616,-0.166,-0.1662,-0.1719,-0.1719,-0.1671,-0.167,0,0,0,0,0,0,0,0,0,0,0,-0.1616,-0.1616,-0.1616,-0.1662,-0.1719,-0.1719,-0.1671,-0.1657,0,0,0,0,0,0,0,0,0,0,-0.1615,-0.1589,-0.1616,-0.1616,-0.1662,-0.1719,-0.1719,-0.1657,-0.1657,-0.1613,0,-0.1612,0,-0.1651,-0.1665,-0.1665,0,0,0,-0.1654,-0.1589,-0.1615,-0.1616,-0.1663,-0.1719,-0.1691,-0.1658,-0.1658,-0.1613,-0.1612,-0.1612,-0.165,-0.1665,-0.1664,-0.1596,-0.1596,0,0,-0.1651,-0.1617,-0.1615,-0.1615,-0.1662,-0.1689,-0.1693,-0.166,-0.1643,-0.1612,-0.1612,-0.1649,-0.1664,-0.1663,-0.1597,-0.1596,0,0,0,-0.1647,-0.1614,-0.1643,-0.1615,-0.1641,-0.1691,-0.1695,-0.1645,-0.1657,-0.1612,-0.1648,-0.1664,-0.1663,-0.1597,-0.1597,-0.1687,0,0,0,-0.1645,-0.1613,-0.1641,-0.162,-0.1642,-0.166,-0.168,-0.1659,-0.1658,-0.1649,-0.1664,-0.1662,-0.1597,-0.1597,-0.1685,-0.1734,0,0,0,-0.1616,-0.1611,-0.1615,-0.1618,-0.1651,-0.1663,-0.1673,-0.166,-0.1679,-0.1665,-0.1662,-0.1597,-0.1597,-0.1683,-0.173,-0.1797,0,0,0,-0.1583,-0.1599,-0.1613,-0.1645,-0.1651,-0.171,-0.1674,-0.1699,-0.1692,-0.1663,-0.1597,-0.1597,-0.1682,-0.1727,-0.1794,-0.1676,-0.1682,0,0,-0.1596,-0.1598,-0.1625,-0.1642,-0.1713,-0.1702,-0.1755,-0.1725,-0.1664,-0.1598,-0.1598,-0.1685,-0.173,-0.1796,-0.1656,-0.1662,0,0,0,-0.1628,-0.164,-0.1662,-0.1706,-0.1746,-0.1786,-0.1768,-0.1751,-0.1704,-0.166,-0.1652,-0.1677,-0.1717,-0.1638,-0.1642,-0.1595,-0.1595,-0.1595,-0.1595,-0.1582,-0.1645,-0.1698,-0.1767,-0.18,-0.1837,-0.1862,-0.1822,-0.1742,-0.1727,-0.1726,-0.1804,-0.1717,-0.172,-0.1691,-0.1691,-0.1692,-0.1692,-0.1692,-0.1612,-0.1646,-0.173,-0.1793,-0.185,-0.1879,-0.1922,-0.1894,-0.1884,-0.1787,-0.1822,-0.1705,-0.173,-0.1699,-0.1697,-0.1696,-0.1696,-0.1695,-0.1695,-0.1556,-0.1592,-0.1636,-0.1745,-0.1827,-0.1888,-0.1966,-0.1969,-0.1955,-0.1989,-0.1866,-0.1862,-0.1894,-0.1979,-0.1979,-0.198,-0.198,-0.1981,-0.1981,-0.1472,-0.1541,-0.1572,-0.1692,-0.1754,-0.185,-0.1959,-0.201,-0.2007,-0.1955,-0.1953,-0.1901,-0.1892,-0.1909,-0.1989,-0.1987,-0.1986,-0.1986,-0.1985,-0.1421,-0.1419,-0.1478,-0.1531,-0.1695,-0.1745,-0.1903,-0.1953,-0.2025,-0.201,-0.1946,-0.1944,-0.191,-0.1902,-0.1917,-0.1996,-0.1996,-0.1996,-0.1996,-0.1346,-0.1369,-0.1398,-0.1465,-0.1582,-0.169,-0.1707,-0.17,-0.1744,-0.1653,-0.1667,-0.1541,-0.1549,-0.1487,-0.1489,-0.1492,-0.146,-0.1458,-0.1457,-0.1318,-0.1331,-0.1316,-0.1377,-0.1506,-0.1592,-0.1512,-0.1325,-0.1185,-0.1431,-0.1515,-0.1972,-0.182,-0.182,-0.1748,-0.1742,-0.1756,0,0]},{"header":{"parameterUnit":"m.s-1","parameterCategory":2,"la1":30.2992,"la2":30.254,"lo1":-89.0895,"lo2":-89.0443,"dy":0.0025,"dx":0.0025,"nx":19,"ny":19,"refTime":"2026-05-20T21:00:00:Z","depth":"2","parameterNumber":3,"parameterNumberName":"V-component_of_CURRENTS"},"data":[0,0,0,-0.0297,-0.0296,-0.0194,-0.0193,0.0042,0.0044,0,0,0,0,0,0,0,0,0,0,0,-0.0344,-0.0344,-0.0297,-0.0296,-0.0194,-0.0193,0.0041,0.0044,0,0,0,0,0,0,0,0,0,0,0,-0.0343,-0.0344,-0.0344,-0.0296,-0.0194,-0.0193,0.0041,-0.0054,0,0,0,0,0,0,0,0,0,0,-0.0162,-0.023,-0.0344,-0.0344,-0.0296,-0.0195,-0.0193,-0.0059,-0.0048,0.0014,0,-0.0007,0,0.0015,0.0058,0.0059,0,0,0,-0.026,-0.024,-0.022,-0.0345,-0.0295,-0.0195,-0.023,-0.0053,-0.004,0.0029,-0.0004,0.0005,0.0019,0.006,0.0061,0.025,0.025,0,0,-0.0266,-0.0302,-0.023,-0.0214,-0.0313,-0.0234,-0.0227,-0.0046,-0.0045,-0.0003,0.001,0.0023,0.0061,0.0063,0.0249,0.025,0,0,0,-0.0306,-0.0306,-0.0292,-0.0223,-0.0218,-0.0232,-0.0224,-0.0052,-0.0052,0.0013,0.0026,0.0062,0.0065,0.0249,0.0249,0.0163,0,0,0,-0.0308,-0.0332,-0.0296,-0.0312,-0.0224,-0.0148,-0.0235,-0.0064,-0.0043,0.0024,0.0063,0.0067,0.0248,0.0249,0.0164,0.0086,0,0,0,-0.034,-0.0334,-0.0339,-0.0315,-0.0287,-0.0151,-0.0138,-0.0059,-0.0036,0.0059,0.0068,0.0248,0.0249,0.0165,0.009,0.0023,0,0,0,-0.0354,-0.039,-0.0341,-0.035,-0.0289,-0.0189,-0.0139,-0.0066,0.0007,0.0064,0.0248,0.0249,0.0165,0.0093,0.0026,0.013,0.0123,0,0,-0.0406,-0.0397,-0.0395,-0.0348,-0.0292,-0.0197,-0.0093,-0.0004,0.0051,0.0202,0.0206,0.0163,0.009,0.0024,0.0187,0.0178,0,0,0,-0.0412,-0.0421,-0.0388,-0.0348,-0.0252,-0.015,-0.0034,0.002,0.0105,0.0091,0.0208,0.0165,0.0125,0.0197,0.0191,0.0254,0.0254,0.0254,0.0254,-0.0501,-0.0446,-0.0424,-0.0338,-0.0259,-0.0105,-0.0035,0.0063,0.0133,0.0142,0.0129,0.0062,0.0143,0.0138,0.0192,0.0191,0.0191,0.0191,0.0191,-0.0567,-0.0551,-0.0459,-0.0441,-0.0304,-0.0211,-0.0029,0.0006,0.0054,0.0117,0.0083,0.0146,0.0126,0.0185,0.0186,0.0187,0.0187,0.0188,0.0188,-0.0623,-0.0611,-0.061,-0.056,-0.0472,-0.0309,-0.027,-0.0156,-0.0071,-0.0093,-0.0024,-0.0021,-0.0046,-0.0124,-0.0125,-0.0125,-0.0126,-0.0126,-0.0127,-0.0696,-0.0679,-0.0722,-0.0668,-0.0638,-0.0574,-0.0441,-0.0408,-0.0266,-0.0133,-0.013,-0.0045,-0.0035,-0.0063,-0.0136,-0.0135,-0.0133,-0.0132,-0.0132,-0.0765,-0.0784,-0.0837,-0.0849,-0.0795,-0.0757,-0.0657,-0.0527,-0.0476,-0.0395,-0.0129,-0.0125,-0.0101,-0.0091,-0.0119,-0.0203,-0.0203,-0.0203,-0.0203,-0.0816,-0.0826,-0.0912,-0.0938,-0.0921,-0.0827,-0.0788,-0.0516,-0.0261,0.0006,-0.0003,0.0128,0.0126,0.017,0.0174,0.0155,0.0141,0.0142,0.0143,-0.0852,-0.0875,-0.0943,-0.0981,-0.0955,-0.0911,-0.0797,-0.0344,0.021,0.0157,0.0068,-0.0182,-0.0008,-0.0004,0.0055,0.0064,0.003,0,0]}],[{"header":{"parameterUnit":"m.s-1","parameterCategory":2,"la1":30.2992,"la2":30.254,"lo1":-89.0895,"lo2":-89.0443,"dy":0.0025,"dx":0.0025,"nx":19,"ny":19,"refTime":"2026-05-20T21:00:00:Z","depth":"4","parameterNumber":2,"parameterNumberName":"U-component_of_CURRENTS"},"data":[0,0,0,-0.0819,-0.0821,-0.0916,-0.0916,-0.1049,-0.105,0,0,0,0,0,0,0,0,0,0,0,-0.0791,-0.0791,-0.0819,-0.0821,-0.0916,-0.0916,-0.1049,-0.105,0,0,0,0,0,0,0,0,0,0,0,-0.079,-0.0791,-0.0791,-0.0821,-0.0916,-0.0916,-0.1049,-0.0979,0,0,0,0,0,0,0,0,0,0,-0.0887,-0.0852,-0.0791,-0.0791,-0.0821,-0.0915,-0.0916,-0.0976,-0.0983,-0.1004,0,-0.101,0,-0.1024,-0.1058,-0.1058,0,0,0,-0.0839,-0.0845,-0.0867,-0.0791,-0.0822,-0.0915,-0.0878,-0.098,-0.0989,-0.1014,-0.1012,-0.1017,-0.1026,-0.1058,-0.1059,-0.116,-0.116,0,0,-0.0834,-0.0816,-0.0861,-0.0872,-0.0837,-0.0875,-0.0881,-0.0985,-0.0992,-0.1012,-0.102,-0.1028,-0.1059,-0.106,-0.1159,-0.116,0,0,0,-0.0806,-0.0812,-0.0832,-0.0867,-0.0878,-0.0877,-0.0884,-0.0988,-0.0993,-0.1021,-0.103,-0.106,-0.1061,-0.1159,-0.1159,-0.119,0,0,0,-0.0804,-0.0795,-0.0829,-0.0821,-0.0875,-0.0932,-0.0885,-0.0986,-0.0998,-0.1029,-0.106,-0.1062,-0.1159,-0.1159,-0.1188,-0.1203,0,0,0,-0.0788,-0.0793,-0.08,-0.0819,-0.0851,-0.093,-0.0943,-0.099,-0.1002,-0.1058,-0.1063,-0.1158,-0.1159,-0.1187,-0.1201,-0.1216,0,0,0,-0.0773,-0.0772,-0.0799,-0.082,-0.085,-0.0925,-0.0942,-0.1016,-0.1067,-0.106,-0.1159,-0.1159,-0.1187,-0.12,-0.1215,-0.1068,0,0,0,-0.076,-0.0771,-0.0787,-0.0813,-0.0879,-0.0914,-0.0994,-0.1068,-0.108,-0.1128,-0.1131,-0.1189,-0.1201,-0.1216,-0.1107,0,0,0,0,-0.0777,-0.079,-0.0815,-0.0865,-0.0923,-0.0992,-0.1058,-0.1087,-0.1147,-0.1108,-0.1193,-0.12,-0.1208,-0.1119,-0.1162,-0.1162,-0.1162,-0.1162,-0.1162,-0.0742,-0.0795,-0.0837,-0.0907,-0.0968,-0.1064,-0.1115,-0.1164,-0.1178,-0.1204,-0.1228,-0.1265,-0.1172,-0.1231,-0.1231,-0.1231,-0.1231,-0.1231,-0.1231,-0.0721,-0.0738,-0.085,-0.0905,-0.1006,-0.1088,-0.1186,-0.121,-0.1268,-0.126,-0.1267,-0.1161,-0.1234,-0.1234,-0.1233,-0.1233,-0.1233,-0.1233,-0.1232,-0.0663,-0.0678,-0.0747,-0.0847,-0.0993,-0.1107,-0.1195,-0.1262,-0.1292,-0.1316,-0.1218,-0.1287,-0.128,-0.1324,-0.1324,-0.1324,-0.1324,-0.1324,-0.1324,-0.0551,-0.0629,-0.0666,-0.079,-0.0901,-0.1028,-0.1204,-0.124,-0.1302,-0.124,-0.1331,-0.1296,-0.1293,-0.1285,-0.1326,-0.1326,-0.1326,-0.1325,-0.1325,-0.0457,-0.0488,-0.0536,-0.0623,-0.0843,-0.0944,-0.1126,-0.1181,-0.1206,-0.1179,-0.119,-0.1196,-0.1171,-0.1171,-0.1158,-0.1163,-0.1161,-0.1159,0,-0.0384,-0.0392,-0.0468,-0.058,-0.0711,-0.0907,-0.0946,-0.1024,-0.1073,-0.1033,-0.1186,-0.1197,-0.1201,-0.117,-0.1167,-0.115,0,0,0,-0.034,-0.0363,-0.0386,-0.0485,-0.0674,-0.0817,-0.0953,-0.0941,-0.1069,-0.1058,-0.1115,-0.1127,-0.1253,-0.1333,-0.1309,-0.1305,-0.1291,0,0]},{"header":{"parameterUnit":"m.s-1","parameterCategory":2,"la1":30.2992,"la2":30.254,"lo1":-89.0895,"lo2":-89.0443,"dy":0.0025,"dx":0.0025,"nx":19,"ny":19,"refTime":"2026-05-20T21:00:00:Z","depth":"4","parameterNumber":3,"parameterNumberName":"V-component_of_CURRENTS"},"data":[0,0,0,0.0091,0.009,0.0075,0.0075,0.0125,0.0125,0,0,0,0,0,0,0,0,0,0,0,0.01,0.01,0.0091,0.009,0.0075,0.0075,0.0125,0.0125,0,0,0,0,0,0,0,0,0,0,0,0.0101,0.01,0.01,0.009,0.0075,0.0075,0.0125,0.0122,0,0,0,0,0,0,0,0,0,0,0.0129,0.0128,0.01,0.01,0.0089,0.0075,0.0075,0.0121,0.0122,0.0147,0,0.0136,0,0.0125,0.0129,0.0129,0,0,0,0.0103,0.0127,0.0115,0.01,0.0089,0.0075,0.0085,0.0121,0.0123,0.0149,0.0137,0.0138,0.0126,0.013,0.013,0.0183,0.0183,0,0,0.0104,0.0109,0.0114,0.0115,0.0075,0.0086,0.0085,0.0122,0.0125,0.0137,0.0139,0.0127,0.013,0.013,0.0183,0.0183,0,0,0,0.0097,0.011,0.0097,0.0114,0.0102,0.0085,0.0084,0.0123,0.0116,0.0139,0.0128,0.013,0.0131,0.0183,0.0183,0.018,0,0,0,0.0099,0.0105,0.0097,0.0101,0.0101,0.0104,0.0085,0.0114,0.0117,0.0127,0.013,0.0131,0.0183,0.0183,0.018,0.0177,0,0,0,0.0103,0.0105,0.0098,0.0101,0.0087,0.0102,0.0098,0.0114,0.011,0.0129,0.0132,0.0183,0.0183,0.0179,0.0176,0.024,0,0,0,0.0116,0.0076,0.0099,0.0054,0.0087,0.0066,0.0097,0.0092,0.0103,0.013,0.0183,0.0183,0.0179,0.0176,0.0238,0.0182,0,0,0,0.0065,0.007,0.0042,0.006,0.002,0.0069,0.0069,0.0098,0.0124,0.0178,0.0178,0.018,0.0176,0.0239,0.0207,0,0,0,0,0.0024,0.0003,-0.0004,-0.002,-0.0013,0.0027,0.0055,0.0101,0.0154,0.013,0.0189,0.0187,0.0227,0.0191,0.0185,0.0185,0.0185,0.0185,0.0185,-0.0018,-0.0031,-0.0071,-0.0077,-0.0067,0.0001,0.0054,0.0126,0.0143,0.0176,0.0192,0.0245,0.0204,0.0201,0.0201,0.0201,0.0201,0.0201,0.0201,-0.0104,-0.0124,-0.0114,-0.0163,-0.0098,-0.0073,0.0058,0.0107,0.022,0.021,0.025,0.0196,0.0201,0.0201,0.0201,0.0201,0.0201,0.0201,0.0201,-0.0126,-0.0137,-0.0174,-0.0217,-0.0173,-0.0099,0.0002,0.0102,0.0209,0.0255,0.0257,0.0264,0.026,0.0288,0.0288,0.0288,0.0288,0.0289,0.0289,-0.0127,-0.0164,-0.0234,-0.0258,-0.0254,-0.0192,-0.0023,0.0078,0.0203,0.0256,0.0265,0.0275,0.0272,0.0266,0.0293,0.0292,0.0291,0.0291,0.0291,-0.016,-0.0182,-0.0285,-0.0319,-0.0315,-0.0252,-0.011,0.0101,0.022,0.0308,0.0279,0.0278,0.0286,0.0284,0.0278,0.031,0.0309,0.0308,0,-0.0161,-0.0188,-0.0319,-0.0373,-0.0361,-0.0272,-0.0114,0.0032,0.0188,0.0162,0.0214,0.0171,0.0174,0.017,0.0168,0.0154,0,0,0,-0.018,-0.022,-0.0301,-0.0378,-0.037,-0.0194,-0.0066,0.0005,0.0135,0.0265,0.0294,0.0298,0.0268,0.0305,0.0317,0.0314,0.0306,0,0]}]]